Tracking 32579 objects as of 15-Dec-2025
HD Live streaming from Space Station
objects crossing your sky now

ONEWEB-0581

Track ONEWEB-0581 now!
10-day predictions
ONEWEB-0581 is classified as:


NORAD ID: 56069
Int'l Code: 2023-043Z
Perigee: 1,203.4 km
Apogee: 1,206.4 km
Inclination: 87.9 °
Period: 109.4 minutes
Semi major axis: 7575 km
RCS: Unknown
Launch date: March 26, 2023
Source: United Kingdom (UK)
Launch site: SRIHARIKOTA (SRI)
Your satellite tracking list
Your tracking list is empty




NASA's NSSDC Master Catalog

Two Line Element Set (TLE):
1 56069U 23043Z   25348.78163829  .00000003  00000-0 -25558-4 0  9997
2 56069  87.9048 265.5020 0002007  84.3758 275.7602 13.16596031134695
Source of the keplerian elements: AFSPC